Home   Weather   Cape Dorset   Past weeks

Flag for Canada Past Weather in Cape Dorset, Nunavut, Canada — Yesterday and Last 2 Weeks

Now
39 °F

Sunny.


Feels Like: 31 °F
Forecast: 31 / 41 °F
Wind: 14 mph from West

Location: Cape Dorset

Current Time: Sep 25, 2016 at 3:09:55 PM

Latest Report: Sep 25, 2016 at 2:00 PM


Visibility: 9 mi

Pressure: 30.19 "Hg

Humidity: 81%

Dew Point: 34 °F

Location of Cape DorsetLocation

Past Weather in Cape Dorset — Graph

°F

Cape Dorset Temperature Yesterday

Maximum temperature yesterday: 45 °F (at 3:00 PM)
Minimum temperature yesterday: 36 °F (at 12:00 AM)
Average temperature yesterday: 40 °F

High & Low Weather Summary for the Past Weeks

 TemperatureHumidityPressure
High48 °F (Sep 12, 4:00 PM)100% (Sep 11, 4:00 PM)30.25 "Hg (Sep 11, 4:00 PM)
Low30 °F (Sep 15, 2:00 AM)53% (Sep 11, 10:00 AM)29.39 "Hg (Sep 21, 2:55 AM)
Average37 °F86%29.80 "Hg
* Reported Sep 10 2:00 PM — Sep 25 2:00 PM, Cape Dorset, Weather by CustomWeather, © 2016

Note: Actual official high and low records may vary slightly from our data, if they occured in-between our weather recording intervals... More about our weather records

Advertising

Cape Dorset Weather History for the Previous 24 Hours

Scroll right to see more
 ConditionsComfort  
Time TempWeatherWind HumidityBarometerVisibility
2:00 PM
Sun, Sep 25
39 °FSunny.14 mph81%30.19 "Hg9 mi
1:00 PM39 °FSunny.9 mph87%30.20 "Hg9 mi
12:00 PM36 °FSunny.6 mph100%30.21 "Hg9 mi
11:00 AM36 °FSunny.7 mph93%30.22 "Hg9 mi
10:00 AM34 °FLow clouds.5 mph100%30.23 "Hg9 mi
9:02 AM34 °FFog.9 mph100%30.23 "Hg1 mi
8:04 AM34 °FLight rain. Fog.6 mph100%30.24 "Hg6 mi
7:59 AM34 °FFog.8 mph100%30.24 "Hg6 mi
7:00 AM36 °FLow clouds.9 mph100%30.24 "Hg9 mi
6:52 AM36 °FLow clouds.7 mph100%30.24 "Hg9 mi
6:00 AM36 °FLow clouds.7 mph100%30.25 "Hg9 mi
5:02 AM37 °FFog.8 mph100%30.25 "Hg5 mi
4:50 AM37 °FFog.8 mph100%30.25 "Hg6 mi
4:00 AM37 °FFog.5 mph100%30.25 "Hg3 mi
3:49 AM37 °FFog.5 mph100%30.25 "Hg4 mi
3:00 AM37 °FOvercast.7 mph100%30.24 "Hg7 mi
2:00 AM37 °FMostly cloudy.No wind93%30.25 "Hg9 mi
1:00 AM37 °FOvercast.2 mph93%30.24 "Hg9 mi
12:00 AM37 °FOvercast.3 mph93%30.24 "Hg9 mi
11:00 PM
Sat, Sep 24
39 °FOvercast.2 mph87%30.23 "Hg9 mi
10:00 PM39 °FOvercast.2 mph87%30.22 "Hg9 mi
9:00 PM41 °FMostly cloudy.No wind81%30.22 "Hg9 mi
8:00 PM41 °FOvercast.5 mph87%30.22 "Hg9 mi
7:00 PM41 °FMostly cloudy.5 mph87%30.20 "Hg9 mi
6:00 PM43 °FOvercast.5 mph81%30.19 "Hg9 mi
5:00 PM45 °FOvercast.8 mph81%30.17 "Hg9 mi
4:00 PM45 °FOvercast.7 mph81%30.15 "Hg9 mi
3:00 PM45 °FPartly sunny.7 mph81%30.14 "Hg9 mi
Weather by CustomWeather, © 2016

See weather overviewHow to use our weather pages